Showing default

ELEKTRON 1, 746

Orbit data source: Space-Track

ELEKTRON 1, 746 is a payload satellite owned by OKB-1 (CIS) that was launched on Thu, 30 Jan 1964 UTC via a VOSTOK 8K72 launch vehicle from the Tyuratam Missile And Space Complex (TTMTR). Payload-class satellites include a variety of spacecraft equipped with specific instruments for various scientific and technological missions. These include communications satellites like Starlink; space stations such as the ISS; scientific satellites like the Hubble; Earth observation satellites from companies like Planet Labs, Umbra, and HawkEye 360; GPS; miniature CubeSats for education and research; and military/defense satellites.

Loading next visibility...
Identifier
746, 1964-006A
Orbit
Active
Country
Flag of CISCIS
Related business
Manufacturer
OKB-1
Mission
Spacecraft
Bus & Motor
OBJECT D, SRM
Mass
350 kg wet, 350 kg dry
Launch date (UTC)
1964-01-30 (62 years ago)
Launch vehicle
VOSTOK 8K72
Launch site
Tyuratam Missile And Space Complex (TTMTR)
Object type
Payload
Rocket body
Debris
Shape & HBR
Unknown
Radar Cross Section
Large (>1 m²)

Expand to show TLE details & history
Last TLE update: 11 hours ago

TLE from 11 hours ago
0 ELEKTRON 1
1   746U 64006A   25307.95251955  .00002422  00000-0  66257-3 0  9990
2   746  60.8643 133.3773 2998662 169.3013 198.9869  9.10082030 46731
Epoch: 2025-11-03T22:51Z
TLE epoch observation values (Epoch: 2025-11-03T22:51:37.689Z)
Latitude
0.00004°
Longitude
107.02377°
Altitude
6,125.488 km
Speed
4.758 km/s
True Right ascension
08h 53m 30s
True Declination
0° 00' 00"
Sunlit
Object was in daylight at epoch
Visualization orbit readout
Latitude
Unknown
Longitude
Unknown
Altitude
Unknown
Speed
Unknown
Apparent Right ascension
Unknown
Apparent Declination
Unknown
Sunlit
N/A
Visualization observer readout
Local Sidereal Time
05:20:19
Azimuth
Unknown
Elevation
Unknown
Doppler factor
Unknown
Orbital elements
Apogee altitude
6,217.298 km
Perigee altitude
406.015 km
Semi-major axis
9,689.794 km
Eccentricity
0.29987
Inclination
60.8643°
RAAN
133.3773°
Arg. of periapsis
169.3013°
True anomaly
190.77397°
Mean anomaly
198.9869°
Eccentric anomaly
194.64347°
Mean motion
2.27547 °/min
Orbital period
158.21 mins
BSTAR
0.00066257
Loading maneuver chart data...
Computing Atmospheric mass density...

Documentation

Showing up to 5 results
|